Location: *
(60.3769°N, 25.2619°E)
Time: 05:52:57
(UTC+00:00)

Daily predictions for brighter satellites

Satellite Brightness Start Highest point End
(mag) Time Altitude Azimuth Time Altitude Azimuth Time Altitude Azimuth
NPP 4.1 00:01:20 10° NNE 00:06:38 53° E 00:08:20 38° SSE
CZ-2D R/B 2.5 00:03:40 10° NNE 00:08:55 56° ESE 00:10:27 41° SSE
Cosmos 1862 3.7 00:06:35 10° NNW 00:09:57 55° NW 00:09:57 55° NW
Cosmos 1816 Rocket 4.4 00:10:27 46° S 00:12:24 82° E 00:18:34 10° NNE
Cosmos 1356 Rocket 4.4 00:11:58 35° ESE 00:12:39 38° E 00:16:27 10° NNE
Cosmos 2034 Rocket 4.3 00:07:47 10° NNW 00:13:38 46° W 00:14:29 43° WSW
Cosmos 921 Rocket 4.4 00:13:38 27° WNW 00:14:33 30° NW 00:18:34 10° NNE
ATLAS 5 CENTAUR R/B 2.2 00:14:34 46° SE 00:14:46 46° SE 00:19:41 10° ENE
Cosmos 1898 Rocket 4.3 00:15:34 10° NW 00:19:17 34° W 00:19:17 34° W
CZ-4B R/B 3.5 00:16:56 10° NNE 00:21:53 71° WNW 00:22:47 57° WSW
Cosmos 1470 Rocket 3.3 00:18:57 10° NNW 00:23:19 78° W 00:23:27 77° SW
ARIANE 5 R/B 3.9 00:19:17 10° NNE 00:23:56 33° E 00:27:04 18° SSE
Cosmos 1340 Rocket 3.4 00:24:26 44° NW 00:24:26 44° NW 00:28:00 10° N
Cosmos 1937 Rocket 3.9 00:19:22 10° NW 00:23:48 42° W 00:23:48 42° W
Cosmos 292 Rocket 4.3 00:24:29 42° W 00:25:24 48° NW 00:30:03 10° NNE
Cosmos 1763 Rocket 4.2 00:26:18 35° SSE 00:28:04 48° ESE 00:33:10 10° NE
Landsat 5 3.3 00:31:24 71° S 00:31:50 86° WSW 00:36:04 10° NNW
Cosmos 2082 Rocket 3.4 00:27:56 10° NW 00:31:30 26° W 00:31:30 26° W
Lacrosse 5 1.8 00:32:18 57° SSW 00:32:48 60° S 00:37:47 10° ESE
Cosmos 468 Rocket 4.3 00:32:06 42° S 00:33:44 62° ESE 00:39:00 10° NE
Cosmos 1844 Rocket 3.3 00:34:15 31° W 00:36:38 48° NW 00:42:08 10° NE
Cosmos 1869 Rocket 4.3 00:32:24 10° N 00:36:51 54° ENE 00:40:30 15° SE
SJ 16-02 2.7 00:36:06 10° NW 00:38:32 26° WNW 00:38:32 26° WNW
NOSS 3-3 (A) 4.5 00:34:00 10° WNW 00:40:55 53° SW 00:48:37 10° SSE
Cosmos 1633 Rocket 3.8 00:36:51 10° NNW 00:40:23 36° WNW 00:40:23 36° WNW
NOSS 3-3 (C) 4.5 00:34:05 10° WNW 00:41:01 53° SW 00:48:44 10° SSE
Cosmos 2227 Rocket 3.9 00:38:49 10° NW 00:43:54 32° NNE 00:49:00 10° E
Cosmos 1125 Rocket 3.5 00:38:47 10° NNW 00:44:10 89° SW 00:49:30 10° SSE
Cosmos 2297 4.3 00:42:43 30° S 00:45:10 48° ESE 00:50:39 10° NE
Cosmos 972 Rocket 4.1 00:41:31 10° NW 00:46:20 47° WSW 00:46:32 46° WSW
Timation 2 Rocket 4.2 00:41:06 10° NW 00:47:16 67° NE 00:53:16 10° ESE
ATLAS 5 CENTAUR R/B 3.9 00:47:03 12° SE 00:47:39 12° ESE 00:49:14 10° E
deb Chang Zheng 4 4.2 00:43:35 10° NNE 00:47:53 50° ESE 00:49:43 30° SSE
Cosmos 2142 Rocket 4.5 00:44:56 10° NNW 00:50:58 62° W 00:53:44 33° SSW
Cosmos 1933 4.0 00:51:56 32° SSE 00:53:28 51° E 00:57:25 10° NNE
Cosmos 372 Rocket 4.0 00:49:34 10° NW 00:54:43 56° WSW 00:56:46 34° S
IRS-P3 4.3 00:49:24 10° NNE 00:54:47 72° ESE 00:57:28 30° S
Cosmos 1833 4.2 00:49:13 10° NW 00:54:54 81° NE 01:00:33 10° SE
Cosmos 2297 Rocket 3.8 00:50:01 10° NW 00:55:10 34° NNE 01:00:19 10° E
CBERS-1 4.0 00:50:13 10° NNE 00:55:23 84° ESE 00:57:31 36° SSW
Cosmos 1633 4.5 00:53:00 10° NW 00:54:27 18° NW 00:54:27 18° NW
Cosmos 1932 4.5 00:54:41 34° WSW 00:57:41 84° NNW 01:04:11 10° ENE
CZ-4B R/B 1.4 00:57:59 62° S 00:58:32 87° W 01:02:05 10° NNW
Cosmos 2369 Rocket 4.0 00:55:12 10° SSE 00:59:43 25° ESE 01:04:14 10° NE
Cosmos 1606 3.6 01:00:45 26° SSE 01:02:33 47° E 01:06:20 10° NNE
H-2A R/B 3.4 01:03:40 22° WNW 01:03:40 22° WNW 01:06:05 10° NW
ATLAS CENTAUR R/B 2.5 00:59:08 16° WNW 01:02:55 50° N 01:07:23 10° E
Meteor 1-20 Rocket 4.0 00:58:01 10° NNW 01:03:32 82° WSW 01:08:21 14° S
AQUA 3.8 00:59:55 10° NNE 01:04:42 76° WNW 01:06:25 40° SW
COSMOS 2487 2.7 01:02:08 10° NNW 01:05:38 68° NE 01:09:07 10° SE
Cosmos 2150 Rocket 4.4 01:00:31 10° NW 01:05:42 45° WSW 01:07:33 33° SSW
ADEOS II 2.5 01:00:36 10° NNE 01:05:49 59° ESE 01:09:24 20° S
Cosmos 2228 Rocket 3.4 01:03:46 28° S 01:06:04 65° E 01:10:31 10° NNE
ATLAS 3B R/B 4.4 01:03:37 10° SSE 01:08:33 23° ESE 01:13:28 10° ENE
Cosmos 972 4.5 01:03:35 10° NNW 01:08:42 55° WSW 01:11:13 27° S
Cosmos 2263 Rocket 3.9 01:05:50 10° WNW 01:10:46 29° N 01:15:41 10° NE
SL-08 R/B 3.8 01:10:28 38° WSW 01:11:13 40° W 01:15:44 10° NNW
SL-4 R/B 4.1 01:16:16 11° SSE 01:16:16 11° SSE 01:16:34 10° SSE
Tsikada Rocket 4.3 01:12:31 31° WSW 01:15:12 50° WNW 01:21:13 10° N
Cosmos 1869 4.4 01:14:58 28° WNW 01:15:28 29° WNW 01:19:01 10° N
Cosmos 1607 4.4 01:11:20 18° W 01:15:59 59° N 01:22:06 10° ENE
Resurs 1-4 Rocket 2.3 01:11:37 10° NNE 01:16:49 59° WNW 01:19:07 32° SW
Cosmos 841 Rocket 3.7 01:14:59 26° S 01:17:49 65° ESE 01:23:01 10° NE
Cosmos 1151 Rocket 3.0 01:17:17 41° SW 01:18:34 61° WNW 01:22:51 10° N
Spot 4 Rocket 4.4 01:14:32 10° NNE 01:19:41 63° ESE 01:23:35 17° S
Cosmos 1689 Rocket 2.0 01:19:30 60° S 01:19:57 79° WSW 01:23:03 10° NNW
CZ-2D R/B 4.1 01:16:01 10° NNE 01:20:02 51° E 01:22:42 19° S
Cosmos 2208 Rocket 4.0 01:18:16 30° SSW 01:20:58 84° ESE 01:26:16 10° NE
SME Rocket 4.3 01:12:16 10° NNE 01:21:07 82° WNW 01:24:46 26° SSW
CRYOSAT 2 4.3 01:18:22 26° S 01:21:07 70° W 01:25:59 10° N
Cosmos 1818 4.3 01:16:08 12° WNW 01:21:10 53° N 01:26:32 10° E
Cosmos 2278 Rocket 2.4 01:19:20 29° WSW 01:22:11 61° NW 01:27:52 10° NE
MOS 1-B Rocket 4.4 01:18:26 10° NNE 01:25:24 60° WNW 01:28:55 26° SW
Cosmos 1328 Rocket 3.8 01:24:59 36° WSW 01:26:19 50° WNW 01:30:37 10° N
Cosmos 2279 Rocket 4.3 01:20:59 10° NNW 01:26:56 47° W 01:30:30 23° SSW
Cosmos 2221 4.5 01:28:04 15° WNW 01:29:16 16° NW 01:32:02 10° N
IRS-1D 3.6 01:24:03 10° NNE 01:29:24 69° WNW 01:32:24 27° SW
USA 267 3.3 01:23:14 10° ESE 01:29:45 64° SSW 01:35:17 15° W
Cosmos 1602 3.7 01:26:49 10° NNW 01:30:47 86° WSW 01:34:44 10° S
Cosmos 2084 Rocket 3.5 01:28:51 12° WNW 01:32:56 62° SSW 01:37:17 10° SE
Meteor 1-28 Rocket 3.1 01:31:16 17° S 01:34:05 72° WSW 01:37:53 10° NNW
IRIDIUM 104 4.3 01:32:34 17° S 01:36:35 83° W 01:41:51 10° N
SL-16 R/B 3.7 01:35:39 20° W 01:36:42 21° W 01:41:20 10° NW
Iridium 4 Rocket 4.3 01:34:26 10° SSE 01:38:37 42° E 01:42:37 10° NNE
Cosmos 1782 3.5 01:36:25 12° S 01:39:54 54° E 01:43:48 10° NNE
Lacrosse 5 rocket 3.3 01:42:56 15° S 01:42:56 15° S 01:44:11 10° S
IRIDIUM 114 4.3 01:41:42 17° SSW 01:45:46 73° W 01:51:02 10° N
ERS-1 4.5 01:40:49 10° NNE 01:45:55 76° WNW 01:49:34 20° SSW
NPP 4.2 01:41:45 10° NNE 01:46:51 43° WNW 01:49:49 23° WSW
Cosmos 1092 Rocket 4.5 01:42:19 10° S 01:48:20 61° E 01:54:25 10° NNE
CZ-2D R/B 2.8 01:43:58 10° N 01:48:54 40° NW 01:51:46 22° WSW
Cosmos 1707 Rocket 4.2 01:45:16 10° S 01:49:37 56° E 01:53:56 10° NNE
Cosmos 1356 Rocket 4.1 01:48:08 27° WSW 01:49:43 38° WNW 01:53:33 10° N
Cosmos 1943 Rocket 2.9 01:44:51 12° S 01:49:49 49° ESE 01:55:10 10° NE
CENTAUR R/B 4.0 01:45:18 10° S 01:50:52 34° ESE 01:57:15 10° ENE
Cosmos 1515 Rocket 4.0 01:49:26 26° SW 01:51:31 46° WNW 01:55:50 10° N
Cosmos 1400 Rocket 4.3 01:48:20 10° SSE 01:51:53 35° E 01:55:27 10° NNE
Cosmos 1570 Rocket 4.2 01:48:49 24° SW 01:52:01 62° NW 01:57:20 10° NNE
Cosmos 1733 Rocket 3.1 01:47:35 10° NNW 01:52:04 85° ENE 01:56:33 10° SSE
IRIDIUM 103 4.4 01:50:51 16° SSW 01:54:57 64° W 02:00:11 10° N
Meteor 1-14 Rocket 4.4 01:53:00 10° NNW 01:58:20 48° W 02:03:37 10° SSW
IRS-1C 4.3 01:53:18 10° NNE 01:58:32 56° WNW 02:02:16 19° SW
ATLAS 5 CENTAUR R/B 1.9 01:56:06 21° WSW 01:59:15 77° NNW 02:04:44 10° ENE
ARIANE 5 R/B 2.6 01:58:19 10° NNE 02:03:26 63° WNW 02:07:23 17° SW
Meteor 1-5 Rocket 4.1 01:59:26 10° NNW 02:04:51 87° WSW 02:10:23 10° SSE
Cosmos 1536 3.5 02:01:39 10° N 02:05:37 58° ENE 02:09:33 10° SSE
USA 238 DEB 4.0 02:00:34 16° SW 02:06:03 65° SE 02:13:01 10° ENE
USA 238 4.0 02:00:39 16° SW 02:06:09 65° SE 02:13:08 10° ENE
Cosmos 540 Rocket 3.4 02:03:57 18° SW 02:07:52 78° NW 02:13:05 10° NNE
Nadezhda 4 Rocket 3.9 02:03:42 10° SSW 02:09:50 78° WNW 02:16:00 10° NNE
Cosmos 1763 Rocket 3.9 02:06:19 19° WSW 02:09:57 51° NW 02:15:10 10° NNE
Cosmos 1346 Rocket 3.0 02:08:44 10° NNW 02:12:51 76° ENE 02:16:58 10° SSE
SeaSat 1 3.9 02:08:38 10° NE 02:13:09 34° ESE 02:17:39 10° S
PSLV R/B 4.0 02:09:15 10° S 02:13:20 56° WSW 02:17:24 10° NNW
Cosmos 2084 3.7 02:10:53 19° SW 02:14:04 67° SSE 02:18:25 10° ENE
CZ-2C R/B 2.8 02:10:10 10° NNE 02:14:13 71° WNW 02:17:45 13° SSW
Cosmos 1666 4.0 02:10:55 10° N 02:14:32 42° ENE 02:18:08 10° SE
Cosmos 1869 Rocket 4.5 02:10:37 10° NNW 02:14:32 30° W 02:17:36 15° SW
Meteor 1-26 Rocket 4.2 02:09:39 11° SSW 02:14:52 71° WNW 02:20:29 10° NNE
Lacrosse 5 2.3 02:11:31 15° W 02:15:21 41° SSW 02:20:04 10° SE
Cosmos 1844 Rocket 4.2 02:16:50 10° WNW 02:21:46 29° N 02:26:42 10° NE
Cosmos 1340 2.7 02:18:41 10° NNW 02:22:31 86° ENE 02:26:20 10° SSE
Cosmos 1553 Rocket 4.0 02:17:09 10° NNW 02:23:32 89° W 02:29:47 10° S
deb Chang Zheng 4 4.4 02:19:48 10° N 02:23:48 35° WNW 02:26:51 16° WSW
Cosmos 2219 3.4 02:22:26 10° NW 02:28:13 81° NE 02:33:55 10° SE
Cosmos 2227 Rocket 2.8 02:23:17 10° NW 02:28:58 63° NE 02:34:37 10° ESE
Cosmos 2297 4.0 02:24:40 15° WSW 02:29:21 58° NW 02:35:02 10° NE
Cosmos 1933 4.4 02:27:47 16° WSW 02:30:15 28° WNW 02:33:50 10° N
CZ-4B R/B 3.4 02:31:17 14° W 02:31:28 14° W 02:33:22 10° NW
Timation 2 Rocket 4.2 02:28:49 10° NW 02:34:35 44° WSW 02:40:11 10° S
IDEFIX/ARIANE 42P 2.8 02:29:26 10° NNE 02:34:45 77° ESE 02:40:02 10° SSW
Cosmos 1814 Rocket 4.4 02:30:30 14° WSW 02:34:49 51° NW 02:39:56 10° NNE
Cosmos 1606 3.8 02:35:48 14° WSW 02:38:29 29° WNW 02:41:57 10° N
Cosmos 2297 Rocket 2.5 02:34:23 10° NW 02:40:06 72° NE 02:45:45 10° SE
COSMOS 2487 3.8 02:37:53 10° WNW 02:40:25 19° WSW 02:42:55 10° SSW
ATLAS CENTAUR R/B 1.8 02:37:34 10° WNW 02:42:22 77° NNE 02:46:48 10° ESE
Cosmos 2242 Rocket 4.3 02:38:37 10° S 02:43:04 59° E 02:47:31 10° NNE
Cosmos 2369 Rocket 2.3 02:37:23 10° SW 02:43:06 84° SE 02:48:49 10° NE
Cosmos 2228 Rocket 4.2 02:41:16 12° WSW 02:44:40 27° WNW 02:48:32 10° N
ADEOS II 2.8 02:40:34 10° N 02:45:24 38° NW 02:50:13 10° WSW
Meteor 2-6 Rocket 4.4 02:40:13 10° SSW 02:46:09 85° WNW 02:52:11 10° NNE
Cosmos 2026 Rocket 4.1 02:42:52 10° SSW 02:49:12 83° WNW 02:55:38 10° NNE
Cosmos 1656 Rocket 4.4 02:44:01 10° SSW 02:49:32 55° ESE 02:55:02 10° NE
Meteor 1-27 Rocket 4.2 02:44:48 10° S 02:50:37 69° E 02:56:21 10° NNE
NOSS 3-2 (A) 3.7 02:44:48 10° SW 02:50:59 79° SSE 02:58:07 10° ENE
Cosmos 1689 Rocket 4.4 02:51:49 10° W 02:51:58 10° W 02:52:24 10° WNW
NOSS 3-2 (C) 3.9 02:47:31 10° SW 02:53:37 68° SE 03:00:40 10° ENE
USA 81 4.1 02:48:47 10° SSW 02:54:05 80° W 02:59:25 10° N
Meteor 1-11 Rocket 3.9 02:49:19 10° NNW 02:54:48 49° W 03:00:08 10° S
Cosmos 1500 3.5 02:51:32 10° NNW 02:55:06 42° W 02:58:39 10° SSW
CZ-2D R/B 4.4 02:51:56 10° N 02:55:32 30° WNW 02:59:04 10° WSW
Resurs 1-4 Rocket 3.7 02:52:06 10° N 02:55:47 20° NW 02:59:29 10° W
Cosmos 2263 Rocket 3.7 02:51:01 10° NW 02:56:12 34° NNE 03:01:20 10° E
Cosmos 1862 Rocket 3.6 02:52:45 10° SSW 02:57:15 84° WNW 03:01:47 10° NNE
Meteor 1-10 Rocket 4.4 02:51:55 10° SSW 02:57:52 80° WNW 03:03:53 10° NNE
ATLAS 3B R/B 3.0 02:51:39 10° SW 02:58:10 62° SE 03:04:42 10° ENE
Cosmos 1655 Rocket 4.4 02:53:45 10° S 02:59:57 72° E 03:06:15 10° NNE
Cosmos 841 Rocket 4.2 02:55:10 10° WSW 03:00:03 39° NW 03:05:00 10° NNE
Cosmos 1607 4.4 02:57:47 10° WNW 03:03:57 65° NNE 03:10:07 10° E
H-2A R/B 2.2 03:00:05 10° NNE 03:03:59 78° WNW 03:07:49 10° SSW
S3M 4.0 02:58:19 10° NNW 03:04:24 65° W 03:10:32 10° S
Cosmos 1818 3.8 02:59:46 10° WNW 03:05:18 78° NNE 03:10:46 10° ESE
Cosmos 2278 Rocket 3.4 03:02:13 10° WNW 03:07:18 32° NNW 03:12:23 10° NE
Cosmos 1315 Rocket 3.1 03:04:32 10° S 03:08:40 79° ESE 03:12:50 10° NNE
COBE Rocket 4.2 03:05:18 10° SSE 03:09:57 71° ENE 03:14:46 10° NNW
USA 267 3.8 03:07:25 10° SE 03:13:31 40° SSW 03:19:39 10° WNW
